Overview Statistics Trail Chart Weather Telemetry Raw packets
 

This is the latest recevied weather packets stored in our database for station/object SV9TNF-52. If no packets are shown the sender has not sent any weather packets the latest 10 day(s).

<< 37 38 39 40 41 42 43 >>
Time Temp. Humidity Pressure Rain* Wind** Luminosity Snow
1788407643 21.67° C 54% 1017.6 hPa 0 mm 4.92 m/s, 196° - -
1788407343 21.67° C 54% 1018 hPa 0 mm 7.6 m/s, 131° - -
1788407043 21.67° C 54% 1018 hPa 0 mm 5.81 m/s, 186° - -
1788406744 21.67° C 55% 1018 hPa 0 mm 4.02 m/s, 226° - -
1788406443 21.67° C 55% 1017.6 hPa 0 mm 6.26 m/s, 181° - -
1788406143 22.22° C 54% 1017.6 hPa 0 mm 5.81 m/s, 114° - -
1788405843 22.22° C 55% 1017.6 hPa 0 mm 5.81 m/s, 221° - -
1788405542 22.22° C 56% 1017.6 hPa 0 mm 4.47 m/s, 209° - -
1788405242 22.22° C 56% 1017.6 hPa 0 mm 4.47 m/s, 225° - -
1788404942 21.67° C 56% 1017.6 hPa 0 mm 5.81 m/s, 224° - -
1788404642 21.67° C 56% 1017.6 hPa 0 mm 4.92 m/s, 206° - -
1788404342 21.67° C 56% 1017.6 hPa 0 mm 8.05 m/s, 222° - -
1788404042 21.11° C 56% 1017.6 hPa 0 mm 5.81 m/s, 243° - -
1788403742 21.11° C 55% 1017.6 hPa 0 mm 7.6 m/s, 204° - -
1788403442 21.67° C 54% 1017.6 hPa 0 mm 6.71 m/s, 180° - -
1788403142 21.67° C 53% 1017.6 hPa 0 mm 6.26 m/s, 169° - -
1788402842 21.67° C 52% 1017.6 hPa 0 mm 6.71 m/s, 254° - -
1788402541 21.67° C 52% 1017.6 hPa 0 mm 5.36 m/s, 241° - -
1788402241 22.22° C 51% 1018 hPa 0 mm 4.02 m/s, 236° - -
1788401941 21.67° C 51% 1018 hPa 0 mm 5.81 m/s, 256° - -
1788401641 22.22° C 52% 1018 hPa 0 mm 1.79 m/s, 191° - -
1788401341 22.22° C 51% 1018 hPa 0 mm 5.81 m/s, 189° - -
1788401042 22.78° C 51% 1018 hPa 0 mm 6.71 m/s, 176° - -
1788400741 22.22° C 51% 1018 hPa 0 mm 4.47 m/s, 135° - -
1788400441 22.22° C 51% 1018 hPa 0 mm 6.26 m/s, 207° - -

* Rain latest hour (hover to see other rain measurements)
** Current wind speed in m/s (hover to see current wind gust speed)